Waarnemingen

Advertentie
Mijn weer
Oostende Airport, België (6407): temperatuur & dauwpunt: 19.06.2019 16:00:00 - 25.06.2019 16:00:00 (CEST)Oostende Airport, België (6407): windsnelheid & windstoten: 19.06.2019 16:00:00 - 25.06.2019 16:00:00 (CEST)Oostende Airport, België (6407): windrichting: 19.06.2019 16:00:00 - 25.06.2019 16:00:00 (CEST)Oostende Airport, België (6407): luchtdruk: 19.06.2019 16:00:00 - 25.06.2019 16:00:00 (CEST)Oostende Airport, België (6407): zicht: 19.06.2019 16:00:00 - 25.06.2019 16:00:00 (CEST)
Datum & Tijd tt [°C] td [°C] ff [km/u] ff [kn] fx [km/u] fx [kn] dd ppp [hPa] vv [km]
25.06.2019 16:00:00 22,9 18,4 15 8 22 12 WNW 1017,6 7
25.06.2019 15:00:00 24,2 19,2 15 8 18 10 NNW 1016,9 9
25.06.2019 14:00:00 25,5 19,3 4 2 - - - 1016,2 9
25.06.2019 13:00:00 22,4 18,1 8 4 22 12 NNO 1016,5 8
25.06.2019 12:00:00 20,7 17,1 15 8 25 14 NNW 1016,2 8
25.06.2019 11:00:00 25,9 20,0 4 2 - - - 1015,2 9
25.06.2019 10:00:00 24,1 19,9 8 4 14 8 OZO 1015,3 8
25.06.2019 09:00:00 21,8 18,0 9 5 18 10 NNO 1015,3 7
25.06.2019 08:00:00 20,8 17,8 11 6 - - NO 1015,4 7
25.06.2019 07:00:00 20,3 17,1 18 10 32 18 NO 1015,4 9
25.06.2019 06:00:00 19,7 16,4 21 11 31 17 NO 1015,4 10
25.06.2019 05:00:00 19,5 16,4 21 11 - - NO 1015,6 10
25.06.2019 04:00:00 19,4 15,8 21 11 29 16 NO 1016,3 10
25.06.2019 03:00:00 18,4 15,7 14 8 18 10 NO 1016,9 14
25.06.2019 02:00:00 18,3 15,1 13 7 - - N 1017,6 10
25.06.2019 01:00:00 18,0 15,0 11 6 18 10 N 1018,0 10
25.06.2019 00:00:00 17,4 15,2 9 5 14 8 NNW 1018,2 10
24.06.2019 23:00:00 17,6 15,2 9 5 - - NNW 1018,4 9
24.06.2019 22:00:00 18,3 15,5 8 4 18 10 NW 1018,3 10
24.06.2019 21:00:00 18,4 15,6 4 2 18 10 - 1018,0 10
24.06.2019 20:00:00 19,4 16,1 8 4 - - NW 1017,8 10
24.06.2019 19:00:00 19,8 15,9 11 6 14 8 NW 1018,0 10
24.06.2019 18:00:00 21,5 16,5 11 6 29 16 NW 1018,1 10
24.06.2019 17:00:00 21,0 16,5 21 11 - - W 1018,5 10
24.06.2019 16:00:00 22,5 17,6 18 10 32 18 WNW 1018,4 10
24.06.2019 15:00:00 24,3 18,3 18 10 29 16 WNW 1018,0 20
24.06.2019 14:00:00 23,4 17,5 22 12 - - WNW 1017,8 10
24.06.2019 13:00:00 28,3 19,7 11 6 25 14 Z 1016,8 10
24.06.2019 12:00:00 27,2 18,4 15 8 25 14 ZZO 1016,6 10
24.06.2019 11:00:00 25,4 18,4 13 7 - - Z 1016,8 10
24.06.2019 10:00:00 24,3 18,4 11 6 18 10 ZZO 1016,5 10
24.06.2019 09:00:00 22,4 17,3 15 8 25 14 ZZO 1016,3 10
24.06.2019 08:00:00 21,5 17,0 15 8 - - ZZO 1016,2 10
24.06.2019 07:00:00 19,3 16,3 11 6 18 10 OZO 1016,0 10
24.06.2019 06:00:00 19,4 16,0 13 7 18 10 O 1015,9 10
24.06.2019 05:00:00 18,9 15,9 11 6 - - OZO 1015,9 10
24.06.2019 04:00:00 19,4 15,9 13 7 14 8 OZO 1015,9 10
24.06.2019 03:00:00 19,6 16,4 11 6 14 8 OZO 1016,5 10
24.06.2019 02:00:00 20,5 17,4 11 6 - - O 1016,4 10
24.06.2019 01:00:00 21,0 18,0 9 5 14 8 O 1016,5 10
24.06.2019 00:00:00 21,7 18,0 8 4 14 8 OZO 1016,5 10
23.06.2019 23:00:00 22,6 17,7 13 7 - - OZO 1016,1 10
23.06.2019 22:00:00 23,2 18,9 11 6 14 8 O 1015,4 10
23.06.2019 21:00:00 24,4 18,6 11 6 14 8 ONO 1015,5 10
23.06.2019 20:00:00 23,8 18,5 9 5 - - NO 1015,6 10
23.06.2019 19:00:00 23,5 17,6 9 5 25 14 NNO 1015,5 10
23.06.2019 18:00:00 24,1 17,4 21 11 29 16 NO 1015,9 10
23.06.2019 17:00:00 23,6 17,4 22 12 - - NO 1016,5 10
23.06.2019 16:00:00 23,6 17,3 18 10 29 16 NNO 1016,7 10
23.06.2019 15:00:00 24,4 17,4 18 10 29 16 NNO 1017,2 10
23.06.2019 14:00:00 25,0 17,8 21 11 - - NNO 1017,4 10
23.06.2019 13:00:00 25,3 17,0 11 6 25 14 O 1017,9 10
23.06.2019 12:00:00 23,9 16,6 15 8 25 14 O 1018,1 10
23.06.2019 11:00:00 22,3 15,5 15 8 - - ONO 1018,3 10
23.06.2019 10:00:00 20,0 14,9 11 6 22 12 O 1018,5 10
23.06.2019 09:00:00 18,6 14,3 13 7 22 12 O 1018,7 10
23.06.2019 08:00:00 17,6 13,5 13 7 - - O 1018,9 10
23.06.2019 07:00:00 15,5 13,0 13 7 22 12 O 1018,8 10
23.06.2019 06:00:00 14,5 12,1 13 7 22 12 O 1018,8 10
23.06.2019 05:00:00 13,9 11,8 11 6 - - O 1018,9 15
23.06.2019 04:00:00 15,0 12,4 16 9 22 12 O 1019,1 10
23.06.2019 03:00:00 15,8 12,9 13 7 18 10 ONO 1019,5 10
23.06.2019 02:00:00 16,0 12,9 13 7 - - NO 1019,7 10
23.06.2019 01:00:00 16,0 14,1 11 6 22 12 NO 1020,0 10
23.06.2019 00:00:00 16,3 13,8 15 8 25 14 NO 1020,3 10
22.06.2019 23:00:00 16,5 13,3 16 9 - - NO 1020,6 10
22.06.2019 22:00:00 16,5 12,9 18 10 32 18 NO 1020,3 10
22.06.2019 21:00:00 17,2 12,2 24 13 32 18 NO 1020,3 10
22.06.2019 20:00:00 17,9 11,9 24 13 - - NO 1020,3 10
22.06.2019 19:00:00 18,8 11,8 26 14 40 21 NO 1020,3 10
22.06.2019 18:00:00 18,8 12,3 26 14 40 21 NNO 1020,8 10
22.06.2019 17:00:00 18,6 12,1 29 16 - - NNO 1021,4 10
22.06.2019 16:00:00 19,1 12,3 29 16 40 21 NO 1021,6 10
22.06.2019 15:00:00 19,2 12,7 26 14 40 21 NNO 1022,1 10
22.06.2019 14:00:00 18,7 11,9 26 14 - - NNO 1022,5 10
22.06.2019 13:00:00 19,0 11,8 22 12 32 18 NNO 1022,5 10
22.06.2019 12:00:00 19,6 11,8 11 6 29 16 NO 1022,5 10
22.06.2019 11:00:00 18,3 9,4 16 9 - - ONO 1022,7 10
22.06.2019 10:00:00 17,7 9,7 13 7 18 10 NO 1023,1 10
22.06.2019 09:00:00 15,9 9,7 13 7 18 10 ONO 1023,3 10
22.06.2019 08:00:00 14,2 10,0 11 6 - - ONO 1023,2 10
22.06.2019 07:00:00 11,3 9,3 8 4 11 6 ONO 1023,1 10
22.06.2019 06:00:00 9,1 7,9 5 3 7 4 O 1023,1 10
22.06.2019 05:00:00 8,6 6,7 2 1 - - - 1023,1 10
22.06.2019 04:00:00 9,2 7,1 4 2 7 4 ONO 1023,1 10
22.06.2019 03:00:00 10,3 8,2 4 2 4 2 ONO 1023,3 10
22.06.2019 02:00:00 10,5 8,3 2 1 - - NO 1023,6 10
22.06.2019 01:00:00 10,1 8,4 5 3 7 4 Z 1023,6 10
22.06.2019 00:00:00 12,2 9,0 4 2 7 4 NNO 1023,3 10
21.06.2019 23:00:00 13,6 10,2 5 3 - - NNW 1023,1 10
21.06.2019 22:00:00 14,2 10,2 9 5 14 8 NNW 1022,7 10
21.06.2019 21:00:00 15,4 9,5 9 5 18 10 NW 1022,5 10
21.06.2019 20:00:00 16,3 10,5 13 7 - - NW 1022,3 10
21.06.2019 19:00:00 16,7 10,2 13 7 18 10 NW 1022,1 10
21.06.2019 18:00:00 16,6 9,1 13 7 22 12 NNW 1021,9 10
21.06.2019 17:00:00 16,7 10,1 13 7 - - NW 1021,7 10
21.06.2019 16:00:00 16,7 10,1 16 9 25 14 NW 1021,6 10
21.06.2019 15:00:00 16,5 10,0 18 10 29 16 WNW 1021,4 10
21.06.2019 14:00:00 16,7 10,5 21 11 - - WNW 1021,2 10
21.06.2019 13:00:00 16,7 9,9 24 13 36 19 W 1020,8 10
21.06.2019 12:00:00 16,1 9,2 22 12 32 18 W 1020,6 10
21.06.2019 11:00:00 16,1 9,3 26 14 - - W 1020,0 10
21.06.2019 10:00:00 15,4 9,3 22 12 32 18 W 1019,6 10
21.06.2019 09:00:00 14,2 10,5 21 11 25 14 W 1019,2 10
21.06.2019 08:00:00 12,8 10,9 13 7 - - ZW 1018,6 10
21.06.2019 07:00:00 10,5 9,2 13 7 18 10 ZW 1018,1 10
21.06.2019 06:00:00 9,2 7,9 13 7 18 10 ZZW 1017,8 8
21.06.2019 05:00:00 9,1 7,8 13 7 - - ZW 1017,7 10
21.06.2019 04:00:00 9,6 8,2 11 6 18 10 ZW 1017,6 10
21.06.2019 03:00:00 10,3 9,0 13 7 18 10 ZZW 1017,4 10
21.06.2019 02:00:00 9,5 8,0 11 6 - - ZZW 1017,1 10
21.06.2019 01:00:00 10,1 8,4 11 6 14 8 ZW 1016,9 10
21.06.2019 00:00:00 10,8 8,6 13 7 22 12 ZZW 1016,7 10
20.06.2019 23:00:00 12,0 8,5 16 9 - - ZW 1016,5 10
20.06.2019 22:00:00 13,0 9,0 13 7 32 18 ZW 1016,1 10
20.06.2019 21:00:00 15,9 7,4 26 14 36 19 WZW 1015,7 10
20.06.2019 20:00:00 17,0 8,9 28 15 - - W 1015,4 10
20.06.2019 19:00:00 17,2 11,2 34 18 47 25 W 1015,1 10
20.06.2019 18:00:00 17,6 12,0 35 19 43 23 W 1014,8 10
20.06.2019 17:00:00 17,8 12,2 31 17 - - W 1014,7 10
20.06.2019 16:00:00 17,8 10,5 31 17 43 23 W 1014,5 10
20.06.2019 15:00:00 17,9 10,5 29 16 40 21 W 1014,1 10
20.06.2019 14:00:00 17,8 13,6 31 17 - - W 1013,9 10
20.06.2019 13:00:00 17,3 13,3 29 16 36 19 W 1013,3 10
20.06.2019 12:00:00 17,3 13,5 22 12 29 16 W 1012,9 10
20.06.2019 11:00:00 16,3 13,4 22 12 - - W 1012,4 15
20.06.2019 10:00:00 15,6 13,1 21 11 29 16 ZW 1011,9 8
20.06.2019 09:00:00 15,2 12,8 16 9 29 16 ZW 1011,4 9
20.06.2019 08:00:00 14,6 12,5 18 10 - - ZW 1011,0 6
20.06.2019 07:00:00 14,3 12,2 18 10 29 16 ZW 1010,7 7
20.06.2019 06:00:00 14,2 12,0 18 10 29 16 ZW 1010,5 7
20.06.2019 05:00:00 14,0 12,2 16 9 - - ZW 1010,3 7
20.06.2019 04:00:00 14,3 12,3 16 9 29 16 ZW 1010,2 8
20.06.2019 03:00:00 14,4 12,7 16 9 29 16 ZZW 1010,4 8
20.06.2019 02:00:00 15,5 13,7 21 11 - - WZW 1010,0 8
20.06.2019 01:00:00 15,1 13,3 13 7 18 10 ZW 1009,9 8
20.06.2019 00:00:00 16,0 14,5 8 4 18 10 WZW 1009,5 7
19.06.2019 23:00:00 16,1 13,9 8 4 - - W 1009,5 10
19.06.2019 22:00:00 15,9 13,7 9 5 14 8 W 1009,2 10
19.06.2019 21:00:00 16,1 13,8 8 4 22 12 NW 1008,4 10
19.06.2019 20:00:00 16,6 13,9 13 7 - - NW 1008,3 10
19.06.2019 19:00:00 17,6 14,0 22 12 29 16 WNW 1007,9 16
19.06.2019 18:00:00 18,1 14,3 15 8 25 14 WNW 1007,8 10
19.06.2019 17:00:00 18,0 14,3 15 8 - - NW 1007,9 10
19.06.2019 16:00:00 18,0 14,1 11 6 22 12 NNW 1008,0 10

tt = temperatuur
td = dauwpunt
ff = windsnelheid
fx = windstoten
dd = windrichting
ppp = luchtdruk
vv = zicht

Weerstations in de omgeving